[[{"header":{"parameterUnit":"m.s-1","parameterCategory":1,"la1":30.2991,"la2":30.254,"lo1":-89.0895,"lo2":-89.0444,"dy":0.0017,"dx":0.0017,"nx":28,"ny":28,"refTime":"2024-05-25T21:00:00:Z","depth":0,"parameterNumber":2,"parameterNumberName":"U-component_of_WINDS"},"data":[0,0,0,0,0,0,0,0,0,0,0,0,0,0,0,0,0,0,0,0,0,0,0,0,0,0,0,0,0,0,0,0,0,0,0,0,0,0,0,0,0,0,0,0,0,0,0,0,0,0,0,0,0,0,0,0,0,0,2.0504,2.0506,0,2.069,2.0692,2.0695,2.0745,2.0744,2.0742,2.0741,2.0935,2.0941,2.0947,0,0,0,0,0,0,0,0,0,0,0,0,0,2.0196,2.0201,2.0504,2.0506,2.0508,2.069,2.0692,2.0695,2.0745,2.0744,2.0742,2.0741,2.0933,2.094,2.0948,0,0,0,0,0,0,0,0,0,0,0,0,0,2.0351,2.0203,2.0503,2.0555,2.0562,2.0689,2.0693,2.0696,2.0745,2.0743,2.0742,2.074,2.0931,2.094,2.0949,2.1039,0,0,2.0977,2.0981,0,0,0,0,0,0,0,0,2.0342,2.0362,2.0545,2.0552,2.0559,2.0692,2.0655,2.0811,2.0746,2.0676,2.0741,2.0739,2.0856,2.0871,2.091,2.1048,2.1057,2.0978,2.0984,2.0988,2.099,0,0,0,0,0,0,0,2.0331,2.0354,2.0578,2.0548,2.0556,2.0571,2.0591,2.0685,2.0773,2.0682,2.0686,2.0707,2.086,2.0901,2.0915,2.106,2.0978,2.0986,2.0992,2.0995,2.1285,2.1287,0,0,0,0,0,0,2.0311,2.0345,2.0572,2.0583,2.0444,2.0577,2.06,2.0651,2.0772,2.0789,2.0708,2.0708,2.0886,2.0904,2.0922,2.1037,2.0988,2.0996,2.1002,2.1283,2.1286,2.1288,0,0,0,0,0,0,2.0304,2.0331,2.0564,2.0465,2.0496,2.0585,2.0642,2.0656,2.0697,2.0792,2.0808,2.0734,2.0885,2.0909,2.101,2.1045,2.1001,2.1009,2.1281,2.1284,2.1287,2.1268,0,0,0,0,0,0,2.0295,2.0328,2.0362,2.0466,2.0501,2.0648,2.0644,2.0661,2.0713,2.0715,2.082,2.0836,2.0886,2.0996,2.102,2.1057,2.1016,2.1278,2.1282,2.1286,2.1266,2.127,2.1274,0,0,0,0,0,2.0284,2.0349,2.0363,2.039,2.0545,2.065,2.067,2.0725,2.0715,2.0751,2.0813,2.0833,2.1037,2.1006,2.1033,2.1073,2.1276,2.1281,2.1285,2.1264,2.1269,2.1274,0,0,0,0,0,0,2.0247,2.0363,2.038,2.0481,2.0555,2.0658,2.0704,2.0728,2.0807,2.0806,2.0872,2.0895,2.0992,2.1043,2.1006,2.1169,2.1157,2.1167,2.1132,2.1137,2.1141,2.1127,2.1024,0,0,0,0,0,2.025,2.0324,2.0423,2.0502,2.0538,2.0615,2.0662,2.0698,2.0778,2.081,2.0879,2.0956,2.1038,2.1091,2.1171,2.1274,2.1299,2.1315,2.1319,2.1322,2.133,2.139,2.1399,2.1304,2.1304,2.1303,0,0,2.0258,2.0331,2.0374,2.0496,2.0558,2.0635,2.0641,2.0721,2.0779,2.0822,2.0922,2.0976,2.1067,2.117,2.1219,2.1215,2.1362,2.1328,2.1329,2.1336,2.1396,2.1405,2.1413,2.1307,2.1306,2.1306,0,0,2.0312,2.0374,2.0447,2.051,2.0603,2.0654,2.0672,2.0772,2.0809,2.0911,2.0946,2.1017,2.1156,2.122,2.1271,2.1353,2.1375,2.1377,2.1397,2.1455,2.1463,2.147,2.15,2.151,2.1385,2.1385,2.1385,0,2.031,2.0425,2.0482,2.0562,2.0616,2.0659,2.0735,2.0793,2.0908,2.0945,2.094,2.1117,2.1182,2.1301,2.1321,2.1361,2.1385,2.1365,2.1457,2.1465,2.1472,2.1502,2.1513,2.1385,2.1385,2.1385,2.1385,0,2.0419,2.0499,2.0548,2.0658,2.0718,2.0795,2.0866,2.092,2.0952,2.1004,2.1108,2.1187,2.1286,2.1317,2.1348,2.1442,2.1437,2.1444,2.1433,2.148,2.1509,2.1521,2.1384,2.1384,2.1384,2.1384,0,0,2.0452,2.0595,2.0612,2.0663,2.0771,2.0835,2.0916,2.1012,2.1058,2.1137,2.1207,2.1325,2.1333,2.1391,2.143,2.1481,2.1543,2.1482,2.1485,2.1491,2.1653,2.1647,2.1659,2.1559,2.1561,2.1563,2.1646,0,2.0519,2.0664,2.0719,2.0838,2.0914,2.0958,2.1029,2.1103,2.1155,2.1229,2.1287,2.137,2.1373,2.1408,2.1461,2.1524,2.1576,2.1519,2.1627,2.163,2.1602,2.1675,2.1668,2.1742,2.1657,2.1659,2.1661,0,2.0616,2.0696,2.0822,2.0924,2.0958,2.102,2.1114,2.1183,2.127,2.1305,2.1371,2.1408,2.1497,2.1481,2.1605,2.1565,2.1613,2.1651,2.1655,2.1667,2.1647,2.1689,2.1767,2.1778,2.1679,2.1677,2.1676,0,2.0628,2.0768,2.0862,2.0905,2.1025,2.1069,2.1121,2.1206,2.1262,2.1344,2.1381,2.1473,2.1524,2.1595,2.1657,2.164,2.1776,2.1765,2.1808,2.1807,2.1834,2.1832,2.1921,2.1865,2.1865,2.1864,2.1864,0,2.0697,2.0773,2.087,2.0927,2.1015,2.1079,2.1164,2.122,2.1296,2.1367,2.1411,2.1477,2.1555,2.1631,2.1681,2.1777,2.1799,2.1831,2.1843,2.1827,2.1823,2.1859,2.1855,2.1868,2.1867,2.1866,2.1866,0,2.0725,2.0792,2.0898,2.1004,2.1033,2.1093,2.1184,2.1243,2.1298,2.1388,2.1413,2.1499,2.1592,2.1661,2.1781,2.1815,2.1917,2.193,2.1888,2.1894,2.1933,2.1929,2.2049,2.2069,2.1998,2.1999,2.1999,0,2.0764,2.0823,2.0936,2.0987,2.1039,2.112,2.1177,2.1244,2.1302,2.1407,2.1454,2.155,2.163,2.1777,2.1851,2.1944,2.1959,2.1995,2.1973,2.1956,2.1961,2.1956,2.1964,2.1998,2.1998,2.1999,2.1999,0,2.0827,2.0858,2.0938,2.1031,2.1098,2.1174,2.1251,2.129,2.1372,2.1435,2.153,2.1592,2.1716,2.1811,2.1912,2.1968,2.1998,2.2005,2.2021,2.2004,2.1978,2.1994,2.1896,2.2002,2.2002,2.2001,2.2001,2.2001,2.0862,2.0918,2.1007,2.1095,2.1161,2.1233,2.1294,2.1358,2.1438,2.1543,2.1579,2.1678,2.1767,2.1905,2.1963,2.2042,2.2042,2.2063,2.2069,2.2073,2.2073,2.1965,2.2061,2.2061,2.2061,2.2061,2.2061,0,2.0928,2.0988,2.1069,2.1176,2.1246,2.1269,2.1356,2.1414,2.15,2.158,2.1659,2.177,2.1864,2.1946,2.2044,2.2092,2.2108,2.2116,2.2113,2.2125,2.2067,2.2044,2.2101,2.2101,2.2101,2.2101,2.2101,2.2101,2.097,2.1066,2.1109,2.1239,2.13,2.1397,2.1445,2.1512,2.1577,2.1699,2.1777,2.1831,2.1913,2.2018,2.2105,2.2127,2.2162,2.2165,2.2191,2.2134,2.2129,2.2124,2.2104,2.2172,2.2172,2.2243,2.2244,2.2244]},{"header":{"parameterUnit":"m.s-1","parameterCategory":1,"la1":30.2991,"la2":30.254,"lo1":-89.0895,"lo2":-89.0444,"dy":0.0017,"dx":0.0017,"nx":28,"ny":28,"refTime":"2024-05-25T21:00:00:Z","depth":0,"parameterNumber":3,"parameterNumberName":"V-component_of_WINDS"},"data":[0,0,0,0,0,0,0,0,0,0,0,0,0,0,0,0,0,0,0,0,0,0,0,0,0,0,0,0,0,0,0,0,0,0,0,0,0,0,0,0,0,0,0,0,0,0,0,0,0,0,0,0,0,0,0,0,0,0,5.432,5.4321,0,5.4489,5.4491,5.4493,5.4518,5.4516,5.4515,5.4513,5.4676,5.4682,5.4688,0,0,0,0,0,0,0,0,0,0,0,0,0,5.4008,5.4013,5.4319,5.4322,5.4324,5.4489,5.4491,5.4493,5.4518,5.4516,5.4514,5.4513,5.4674,5.4681,5.4688,0,0,0,0,0,0,0,0,0,0,0,0,0,5.4156,5.4015,5.4319,5.4356,5.4361,5.4488,5.4491,5.4494,5.4519,5.4516,5.4514,5.4512,5.4672,5.4681,5.4689,5.4788,0,0,5.4715,5.4719,0,0,0,0,0,0,0,0,5.4148,5.4168,5.4349,5.4354,5.436,5.448,5.4441,5.4592,5.4519,5.4458,5.4513,5.4511,5.4612,5.4626,5.4662,5.4795,5.4802,5.4716,5.4721,5.4725,5.4728,0,0,0,0,0,0,0,5.4138,5.4161,5.4386,5.4351,5.4358,5.4361,5.438,5.447,5.4545,5.4464,5.4466,5.4486,5.4615,5.4654,5.4666,5.4805,5.4716,5.4724,5.4729,5.4732,5.5028,5.503,0,0,0,0,0,0,5.4122,5.4152,5.4381,5.4391,5.4247,5.4369,5.439,5.4444,5.4545,5.4558,5.4488,5.4487,5.464,5.4656,5.4672,5.4796,5.4725,5.4733,5.4738,5.5025,5.5028,5.5031,0,0,0,0,0,0,5.4115,5.4142,5.4374,5.4273,5.4302,5.4377,5.4437,5.4448,5.4487,5.4563,5.4576,5.4515,5.4639,5.466,5.476,5.4801,5.4737,5.4745,5.5022,5.5026,5.503,5.5042,0,0,0,0,0,0,5.4106,5.414,5.418,5.4273,5.4308,5.4462,5.444,5.4453,5.4503,5.4503,5.4592,5.4604,5.4639,5.4747,5.4768,5.4812,5.4752,5.5019,5.5024,5.5029,5.5039,5.5046,5.5053,0,0,0,0,0,5.4095,5.4174,5.4182,5.4209,5.436,5.4464,5.4484,5.4525,5.4507,5.4547,5.4596,5.4601,5.4793,5.4757,5.4781,5.4828,5.5016,5.5022,5.5028,5.5035,5.5045,5.5053,0,0,0,0,0,0,5.408,5.4187,5.4197,5.4309,5.4378,5.4468,5.452,5.4534,5.4606,5.4603,5.4648,5.4667,5.4765,5.4806,5.4764,5.4929,5.4903,5.4914,5.49,5.4909,5.4916,5.4905,5.4759,0,0,0,0,0,5.409,5.4169,5.4257,5.4347,5.4382,5.4445,5.4492,5.4518,5.459,5.4618,5.4674,5.474,5.4816,5.4864,5.4938,5.5044,5.5063,5.5088,5.5095,5.5101,5.511,5.517,5.5183,5.5051,5.5051,5.5051,0,0,5.4111,5.4179,5.4225,5.4346,5.4402,5.4481,5.4469,5.4552,5.461,5.4629,5.4729,5.4772,5.4849,5.4953,5.5001,5.499,5.5151,5.5109,5.5112,5.5119,5.5178,5.519,5.5201,5.5055,5.5055,5.5054,0,0,5.419,5.4249,5.4333,5.439,5.4477,5.4519,5.4539,5.4628,5.4659,5.4761,5.4777,5.4844,5.4973,5.5028,5.5073,5.5174,5.5181,5.5195,5.5233,5.5292,5.5302,5.5311,5.5349,5.5361,5.5204,5.5204,5.5204,0,5.4204,5.4326,5.4372,5.4456,5.4508,5.4534,5.4617,5.4669,5.4774,5.4808,5.4794,5.4958,5.5011,5.5129,5.5155,5.5189,5.5212,5.5186,5.5297,5.5307,5.5317,5.5353,5.5366,5.5206,5.5206,5.5205,5.5205,0,5.434,5.4424,5.448,5.4586,5.4644,5.4726,5.4783,5.4835,5.4857,5.4899,5.5001,5.5066,5.5154,5.5184,5.5203,5.5305,5.5295,5.5289,5.5263,5.533,5.5365,5.5378,5.5208,5.5207,5.5207,5.5206,0,0,5.4414,5.4546,5.4566,5.4615,5.4713,5.4778,5.486,5.4951,5.4996,5.5066,5.5136,5.5246,5.5241,5.5292,5.5317,5.5368,5.5446,5.5356,5.5358,5.5372,5.5562,5.5568,5.5583,5.5451,5.5454,5.5456,5.5557,0,5.4505,5.466,5.4704,5.4832,5.491,5.4935,5.5008,5.5074,5.5116,5.5186,5.523,5.5308,5.5295,5.5326,5.5378,5.5426,5.5485,5.5419,5.5515,5.5518,5.5498,5.5601,5.5607,5.5699,5.557,5.5572,5.5574,0,5.4633,5.4712,5.485,5.494,5.4974,5.5039,5.5126,5.5193,5.5268,5.5295,5.5352,5.5374,5.5459,5.5428,5.5545,5.55,5.5541,5.5571,5.5575,5.5587,5.5551,5.5617,5.5729,5.5744,5.5595,5.5594,5.5592,0,5.4676,5.4815,5.4917,5.4957,5.5064,5.511,5.5156,5.5229,5.5281,5.5355,5.5389,5.547,5.5515,5.5576,5.5618,5.5591,5.5732,5.5704,5.5755,5.5754,5.5785,5.5783,5.5907,5.5809,5.5808,5.5808,5.5808,0,5.4775,5.4858,5.4938,5.5,5.5094,5.5142,5.5232,5.5279,5.5344,5.5414,5.5438,5.5502,5.5553,5.5623,5.5656,5.5749,5.5768,5.5791,5.5799,5.579,5.5787,5.5819,5.5814,5.5812,5.5811,5.581,5.581,0,5.4838,5.4895,5.5008,5.5101,5.5127,5.5192,5.527,5.533,5.5373,5.5461,5.5484,5.555,5.5634,5.5682,5.5786,5.5809,5.5912,5.5916,5.5889,5.5892,5.5942,5.5937,5.6092,5.6115,5.6,5.6001,5.6002,0,5.4899,5.4965,5.5067,5.5117,5.5166,5.5246,5.53,5.5349,5.5404,5.5496,5.5544,5.5631,5.5703,5.5836,5.5891,5.5971,5.5978,5.6026,5.599,5.5979,5.5981,5.5977,5.5984,5.6033,5.6034,5.6035,5.6036,0,5.5,5.5026,5.5106,5.5196,5.5261,5.5332,5.5403,5.5442,5.5503,5.5562,5.5652,5.5708,5.5817,5.5902,5.5987,5.603,5.6043,5.6047,5.6063,5.6056,5.6038,5.605,5.5908,5.6043,5.6042,5.6042,5.6041,5.6041,5.5066,5.5126,5.5209,5.5296,5.5356,5.5422,5.5485,5.5537,5.5613,5.5709,5.5732,5.5825,5.5898,5.6014,5.606,5.6132,5.6123,5.6146,5.6152,5.6158,5.6161,5.6026,5.6147,5.6147,5.6146,5.6146,5.6146,0,5.5171,5.5226,5.5306,5.5407,5.5476,5.5485,5.5564,5.562,5.5704,5.5773,5.5845,5.5946,5.603,5.6092,5.6176,5.6222,5.623,5.6242,5.624,5.625,5.6163,5.6141,5.6235,5.6235,5.6235,5.6235,5.6235,5.6235,5.5233,5.5337,5.5372,5.5505,5.5558,5.5653,5.5698,5.5758,5.5814,5.5929,5.6,5.6041,5.6107,5.6197,5.6273,5.6289,5.6319,5.6331,5.6348,5.6266,5.6256,5.6247,5.6227,5.6337,5.6337,5.643,5.6431,5.6432]}]]